Enigmes

Forum dédié aux énigmes et à toutes formes de jeux de logique.

Déconnexion

Tu n'es pas identifié sur Prise2tete : s'identifier.

accueil Accueil forum Forum
[+]

Jeux de réflexion

Ci-dessous se trouve une liste uniquement composée de jeux de réflexion mise à jour quotidiennement. Les Jeux flash sont les jeux les plus développés sur Internet, il en existe des millions, de tous genres, accessibles gratuitement.

Les jeux listés ici apportent tous un concept nouveau ou une amélioration des jeux de réflexion habituels. Que ce soient des jeux de logique pure, de construction, de réflexion, de stratégie, d'analyse, d'adresse, des casse-tête ou des variantes de jeux classiques type tetris, sokoban, ou de jeux de plateaux, ils sont tous ici à une condition : ils doivent faire réfléchir le joueur !
Sujet Réponses Vues Dernier message
0 3172 PixelField - Perfect Pi Pack EfCeBa 18-08-2008 20:13:22
10 3040 El Laberinto Esferico zelud 16-08-2008 13:03:17
0 2107 The Blockfather EfCeBa 15-08-2008 12:57:27
1 2612 Orbitrunner binc73 15-08-2008 10:42:06
5 2612 Gemworks zelud 14-08-2008 21:54:39
0 1665 Hog Pop EfCeBa 14-08-2008 11:03:49
0 3537 Coign of Vantage EfCeBa 13-08-2008 22:47:37
1 5136 Fantastic Contraption Gandcie 13-08-2008 21:13:16
3 2871 Switch JustineF 07-08-2008 22:58:15
6 6158 Feel the Beat Mamass 06-08-2008 21:37:42
0 4323 Desolation EfCeBa 06-08-2008 09:24:47
0 2250 Shape Escape Extended EfCeBa 05-08-2008 11:08:08
0 2193 Tonkoto Family EfCeBa 05-08-2008 10:45:43
1 3571 Best Friend Forever 2 PomaH 05-08-2008 01:48:29
0 3030 Best Friends Forever EfCeBa 03-08-2008 10:02:19
1 2712 Umbross PomaH 02-08-2008 10:28:42
0 2774 Shinju EfCeBa 31-07-2008 08:56:37
0 2236 Kinetikz 2 EfCeBa 30-07-2008 09:13:08
1 1965 Solarsaurs 2 Pouf842 27-07-2008 19:03:53
2 2110 PongOut 2 kosmogol 26-07-2008 17:48:38
1 3156 Spin-In kosmogol 26-07-2008 07:58:07
0 6529 Prism : Light the Way EfCeBa 25-07-2008 10:31:40
0 2343 Star Baron EfCeBa 22-07-2008 11:08:56
2 2575 Another Epilepsy Game MthS-MlndN 20-07-2008 21:35:14
3 2786 ADDiction FRiZMOUT 20-07-2008 01:11:30
0 2778 Basic Mouse Puzzle 4 EfCeBa 19-07-2008 11:36:52
1 2124 Doctor A.Tom sensini 17-07-2008 20:37:49
2 2754 Inquisitive Dave sensini 17-07-2008 02:22:04
0 1588 Royal Feast 2 EfCeBa 15-07-2008 21:05:39
0 2050 Telekinetic Eric EfCeBa 14-07-2008 18:47:29

Pied de page des forums

P2T basé sur PunBB
Screenshots par Robothumb

© Copyright 2002–2005 Rickard Andersson

Prise2Tete Forum Statistiques Liste des membres Hall of Fame Contact
© Prise2tete - Site d'énigmes et de réflexion.
Un jeu où seules la réflexion, la logique et la déduction permettent de trouver la solution.

Flux RSS de Prise2Tete Forum Jeux & Prise2Tete Test & Prise2Tete Partenariat et Publicité sur Prise2Tete